| time (UTC) | temp F | wind direction | speed MPH | gust MPH | rain 1hr in | rain 24hr in | rain mn in | humidity % | barometer mb |
| 20260906231506 | 58 | 80 | 0.0 | 0.0 | 0.00 | 0.11 | 0.07 | 80 | 1015.2 |
| 20260906230046 | 59 | 80 | 0.0 | 0.0 | 0.00 | 0.11 | 0.07 | 78 | 1015.2 |
| 20260906224523 | 61 | 80 | 0.0 | 0.0 | 0.00 | 0.11 | 0.07 | 73 | 1015.2 |
| 20260906223100 | 61 | 80 | 0.0 | 0.0 | 0.00 | 0.11 | 0.07 | 69 | 1015.1 |
| 20260906221612 | 62 | 196 | 0.0 | 0.0 | 0.00 | 0.11 | 0.07 | 70 | 1015.0 |
| 20260906220139 | 63 | 186 | 0.0 | 0.0 | 0.00 | 0.11 | 0.07 | 65 | 1014.8 |
| 20260906214545 | 64 | 23 | 0.0 | 0.0 | 0.00 | 0.11 | 0.07 | 62 | 1014.9 |
| 20260906213032 | 64 | 86 | 0.0 | 0.0 | 0.00 | 0.11 | 0.07 | 62 | 1014.8 |
| 20260906211529 | 64 | 196 | 0.0 | 0.0 | 0.00 | 0.11 | 0.07 | 63 | 1014.7 |
| 20260906210054 | 64 | 107 | 0.0 | 0.0 | 0.00 | 0.11 | 0.07 | 64 | 1014.6 |
| 20260906204505 | 65 | 327 | 0.0 | 0.0 | 0.00 | 0.12 | 0.07 | 65 | 1014.5 |
| 20260906203002 | 65 | 68 | 0.0 | 0.0 | 0.00 | 0.12 | 0.07 | 63 | 1014.5 |
| 20260906201607 | 66 | 39 | 0.0 | 0.0 | 0.00 | 0.12 | 0.07 | 66 | 1014.5 |
| 20260906200049 | 65 | 227 | 0.0 | 0.0 | 0.00 | 0.12 | 0.07 | 69 | 1014.4 |
| 20260906194519 | 65 | 175 | 0.0 | 0.0 | 0.00 | 0.12 | 0.07 | 70 | 1014.5 |
| 20260906193104 | 64 | 264 | 0.0 | 0.0 | 0.00 | 0.12 | 0.07 | 72 | 1014.4 |
| 20260906191556 | 65 | 128 | 0.0 | 0.0 | 0.00 | 0.12 | 0.07 | 70 | 1014.6 |
| 20260906190036 | 64 | 257 | 0.0 | 0.0 | 0.00 | 0.12 | 0.07 | 73 | 1014.6 |
| 20260906184559 | 64 | 24 | 0.0 | 0.0 | 0.00 | 0.12 | 0.07 | 69 | 1014.6 |
| 20260906183042 | 65 | 19 | 0.0 | 0.0 | 0.00 | 0.12 | 0.07 | 68 | 1014.6 |
| 20260906181545 | 63 | 79 | 0.0 | 0.0 | 0.00 | 0.12 | 0.07 | 73 | 1014.8 |
| 20260906180038 | 62 | 244 | 0.0 | 0.0 | 0.00 | 0.12 | 0.07 | 76 | 1014.8 |
| 20260906174537 | 63 | 86 | 0.0 | 0.0 | 0.00 | 0.12 | 0.07 | 75 | 1014.8 |
| 20260906173023 | 61 | 92 | 0.0 | 0.0 | 0.00 | 0.12 | 0.07 | 79 | 1015.0 |
| 20260906171610 | 61 | 242 | 0.0 | 0.0 | 0.00 | 0.12 | 0.07 | 81 | 1015.1 |
| 20260906170047 | 61 | 116 | 0.0 | 0.0 | 0.00 | 0.12 | 0.07 | 82 | 1015.1 |
| 20260906164502 | 61 | 217 | 0.0 | 0.0 | 0.00 | 0.12 | 0.07 | 81 | 1015.2 |
| 20260906163052 | 61 | 148 | 0.0 | 0.0 | 0.00 | 0.12 | 0.07 | 82 | 1015.2 |
| 20260906161557 | 60 | 113 | 0.0 | 0.0 | 0.00 | 0.12 | 0.07 | 84 | 1015.4 |
| 20260906160006 | 61 | 98 | 0.0 | 0.0 | 0.00 | 0.12 | 0.07 | 83 | 1015.5 |
| 20260906154607 | 62 | 344 | 0.0 | 0.0 | 0.00 | 0.12 | 0.07 | 81 | 1015.4 |
| 20260906153048 | 60 | 299 | 0.0 | 0.0 | 0.00 | 0.12 | 0.07 | 87 | 1015.2 |
| 20260906151558 | 59 | 71 | 0.0 | 0.0 | 0.00 | 0.12 | 0.07 | 89 | 1015.3 |
| 20260906150048 | 58 | 281 | 0.0 | 0.0 | 0.00 | 0.12 | 0.07 | 92 | 1015.2 |
| 20260906144504 | 58 | 39 | 0.0 | 0.0 | 0.00 | 0.12 | 0.07 | 91 | 1015.3 |
| 20260906143050 | 57 | 113 | 0.0 | 0.0 | 0.00 | 0.12 | 0.07 | 94 | 1015.2 |
| 20260906141542 | 57 | 206 | 0.0 | 0.0 | 0.00 | 0.12 | 0.07 | 95 | 1015.3 |
| 20260906140021 | 56 | 206 | 0.0 | 0.0 | 0.00 | 0.12 | 0.07 | 95 | 1015.3 |
| 20260906134554 | 56 | 216 | 0.0 | 0.0 | 0.00 | 0.12 | 0.07 | 94 | 1015.3 |
| 20260906133054 | 57 | 62 | 0.0 | 0.0 | 0.00 | 0.12 | 0.07 | 96 | 1015.2 |
| 20260906131550 | 56 | 127 | 0.0 | 0.0 | 0.01 | 0.12 | 0.07 | 97 | 1015.2 |
| 20260906130053 | 55 | 126 | 0.0 | 0.0 | 0.03 | 0.12 | 0.07 | 97 | 1015.2 |
| 20260906124537 | 54 | 78 | 0.0 | 0.0 | 0.04 | 0.12 | 0.07 | 97 | 1015.3 |
| 20260906123131 | 54 | 81 | 0.0 | 0.0 | 0.04 | 0.12 | 0.07 | 97 | 1015.3 |
| 20260906121604 | 54 | 81 | 0.0 | 0.0 | 0.03 | 0.11 | 0.06 | 97 | 1015.1 |
| 20260906120056 | 54 | 33 | 0.0 | 0.0 | 0.01 | 0.09 | 0.04 | 97 | 1014.8 |
| 20260906114549 | 55 | 47 | 0.0 | 0.0 | 0.00 | 0.08 | 0.03 | 97 | 1014.7 |
| 20260906113046 | 55 | 47 | 0.0 | 0.0 | 0.01 | 0.08 | 0.03 | 97 | 1014.4 |
| 20260906111546 | 55 | 47 | 0.0 | 0.0 | 0.01 | 0.08 | 0.03 | 97 | 1014.4 |
| 20260906110009 | 55 | 47 | 0.0 | 0.0 | 0.01 | 0.08 | 0.03 | 97 | 1014.1 |
| 20260906104635 | 55 | 47 | 0.0 | 0.0 | 0.02 | 0.08 | 0.03 | 97 | 1014.0 |
| 20260906103050 | 55 | 31 | 0.0 | 0.0 | 0.01 | 0.07 | 0.02 | 97 | 1013.8 |
| 20260906101527 | 55 | 31 | 0.0 | 0.0 | 0.01 | 0.07 | 0.02 | 97 | 1013.5 |
| 20260906100019 | 55 | 31 | 0.0 | 0.0 | 0.01 | 0.07 | 0.02 | 97 | 1013.4 |
| 20260906094617 | 55 | 31 | 0.0 | 0.0 | 0.00 | 0.06 | 0.01 | 97 | 1013.3 |
| 20260906093039 | 55 | 31 | 0.0 | 0.0 | 0.00 | 0.06 | 0.01 | 97 | 1013.2 |
| 20260906091631 | 55 | 31 | 0.0 | 0.0 | 0.00 | 0.06 | 0.01 | 97 | 1013.1 |
| 20260906090100 | 55 | 31 | 0.0 | 0.0 | 0.00 | 0.06 | 0.01 | 97 | 1013.0 |
| 20260906084544 | 55 | 31 | 0.0 | 0.0 | 0.00 | 0.06 | 0.01 | 98 | 1012.9 |
| 20260906083140 | 55 | 31 | 0.0 | 0.0 | 0.01 | 0.06 | 0.01 | 97 | 1012.9 |
| 20260906081556 | 55 | 31 | 0.0 | 0.0 | 0.01 | 0.06 | 0.01 | 97 | 1012.8 |
| 20260906080043 | 55 | 31 | 0.0 | 0.0 | 0.01 | 0.06 | 0.01 | 97 | 1012.8 |
| 20260906074534 | 55 | 31 | 0.0 | 0.0 | 0.01 | 0.06 | 0.01 | 97 | 1012.9 |
| 20260906073107 | 55 | 31 | 0.0 | 0.0 | 0.00 | 0.05 | 0.00 | 97 | 1013.0 |
| 20260906071549 | 55 | 31 | 0.0 | 0.0 | 0.00 | 0.05 | 0.00 | 97 | 1012.9 |
| 20260906070042 | 55 | 31 | 0.0 | 0.0 | 0.00 | 0.05 | 0.00 | 97 | 1012.7 |
| 20260906064526 | 55 | 31 | 0.0 | 0.0 | 0.00 | 0.05 | 0.00 | 97 | 1012.8 |
| 20260906063058 | 55 | 31 | 0.0 | 0.0 | 0.00 | 0.05 | 0.00 | 97 | 1013.0 |
| 20260906061552 | 55 | 31 | 0.0 | 0.0 | 0.00 | 0.05 | 0.00 | 97 | 1013.0 |
| 20260906060036 | 56 | 31 | 0.0 | 0.0 | 0.00 | 0.05 | 0.00 | 97 | 1013.1 |
| 20260906054604 | 56 | 31 | 0.0 | 0.0 | 0.00 | 0.05 | 0.00 | 96 | 1013.1 |
| 20260906053047 | 56 | 31 | 0.0 | 0.0 | 0.00 | 0.05 | 0.00 | 96 | 1013.1 |
| 20260906051527 | 56 | 31 | 0.0 | 0.0 | 0.00 | 0.05 | 0.00 | 97 | 1013.1 |
| 20260906050130 | 56 | 31 | 0.0 | 0.0 | 0.00 | 0.05 | 0.00 | 96 | 1013.1 |
| 20260906044544 | 56 | 31 | 0.0 | 0.0 | 0.03 | 0.05 | 0.00 | 96 | 1013.0 |
| 20260906043021 | 56 | 31 | 0.0 | 0.0 | 0.03 | 0.05 | 0.00 | 96 | 1013.1 |
| 20260906041506 | 57 | 33 | 0.0 | 0.0 | 0.04 | 0.05 | 0.00 | 96 | 1013.0 |
| 20260906040030 | 57 | 33 | 0.0 | 0.0 | 0.04 | 0.05 | 0.00 | 96 | 1012.9 |
| 20260906034542 | 57 | 31 | 0.0 | 0.0 | 0.01 | 0.02 | 0.02 | 96 | 1012.9 |
| 20260906033040 | 58 | 27 | 0.0 | 0.0 | 0.00 | 0.01 | 0.02 | 96 | 1012.6 |
| 20260906031549 | 58 | 107 | 0.0 | 0.0 | 0.00 | 0.01 | 0.01 | 96 | 1012.4 |
| 20260906030033 | 58 | 107 | 0.0 | 0.0 | 0.00 | 0.01 | 0.01 | 96 | 1012.3 |
| 20260906024535 | 57 | 107 | 0.0 | 0.0 | 0.00 | 0.01 | 0.01 | 96 | 1012.2 |
| 20260906023137 | 57 | 107 | 0.0 | 0.0 | 0.00 | 0.01 | 0.01 | 96 | 1012.3 |
| 20260906021604 | 57 | 107 | 0.0 | 0.0 | 0.00 | 0.01 | 0.01 | 96 | 1012.2 |
| 20260906020059 | 57 | 107 | 0.0 | 0.0 | 0.00 | 0.01 | 0.01 | 96 | 1012.2 |
| 20260906014552 | 57 | 107 | 0.0 | 0.0 | 0.00 | 0.01 | 0.01 | 95 | 1012.0 |
| 20260906013015 | 58 | 107 | 0.0 | 0.0 | 0.00 | 0.01 | 0.01 | 95 | 1011.9 |
| 20260906011559 | 58 | 107 | 0.0 | 0.0 | 0.00 | 0.01 | 0.01 | 95 | 1012.1 |
| 20260906010034 | 58 | 107 | 0.0 | 0.0 | 0.00 | 0.01 | 0.01 | 95 | 1012.1 |
| 20260906004508 | 59 | 107 | 0.0 | 0.0 | 0.00 | 0.01 | 0.01 | 95 | 1012.0 |
| 20260906003011 | 59 | 107 | 0.0 | 0.0 | 0.00 | 0.01 | 0.01 | 95 | 1011.8 |
| 20260906001619 | 60 | 107 | 0.0 | 0.0 | 0.00 | 0.01 | 0.01 | 95 | 1011.7 |
| 20260906000045 | 60 | 107 | 0.0 | 0.0 | 0.00 | 0.01 | 0.01 | 94 | 1011.6 |
| 20260905234532 | 61 | 107 | 0.0 | 0.0 | 0.00 | 0.01 | 0.01 | 94 | 1011.4 |
| 20260905233114 | 61 | 107 | 0.0 | 0.0 | 0.00 | 0.01 | 0.01 | 94 | 1011.3 |